FW8061 Weather Reports


Display with metric or nautical units.
time (UTC)temp
F
wind
direction
speed
MPH
gust
MPH
rain 1hr
in
rain 24hr
in
rain mn
in
humidity
%
barometer
mb
20260509103019 40 188 3.0 5.0 0.00 0.00 0.00 74 1011.8
20260509102044 40 188 3.0 5.0 0.00 0.00 0.00 74 1011.7
20260509101019 40 205 3.0 5.0 0.00 0.00 0.00 74 1011.7
20260509100019 40 205 3.0 6.0 0.00 0.00 0.00 74 1011.6
20260509095040 40 194 3.0 5.0 0.00 0.00 0.00 74 1011.5
20260509094022 40 211 2.0 4.0 0.00 0.00 0.00 74 1011.5
20260509093024 40 209 2.0 3.0 0.00 0.00 0.00 74 1011.3
20260509092023 40 209 2.0 4.0 0.00 0.00 0.00 73 1011.3
20260509091023 40 210 2.0 2.0 0.00 0.00 0.00 73 1011.3
20260509090023 40 201 2.0 3.0 0.00 0.00 0.00 73 1011.2
20260509085024 40 188 2.0 5.0 0.00 0.00 0.00 72 1011.2
20260509084024 40 199 3.0 5.0 0.00 0.00 0.00 71 1011.3
20260509083021 40 199 3.0 7.0 0.00 0.00 0.00 70 1011.4
20260509082022 41 195 3.0 6.0 0.00 0.00 0.00 70 1011.2
20260509081024 41 196 3.0 5.0 0.00 0.00 0.00 69 1011.2
20260509080104 41 195 2.0 4.0 0.00 0.00 0.00 69 1011.2
20260509075024 41 193 3.0 4.0 0.00 0.00 0.00 69 1011.2
20260509074026 41 196 2.0 4.0 0.00 0.00 0.00 69 1011.3
20260509073024 41 201 2.0 4.0 0.00 0.00 0.00 69 1011.2
20260509072025 42 200 2.0 4.0 0.00 0.00 0.00 68 1011.2
20260509071208 43 187 2.0 4.0 0.00 0.00 0.00 68 1011.1
20260509070025 44 191 2.0 4.0 0.00 0.00 0.00 65 1011.0
20260509065026 44 182 2.0 4.0 0.00 0.00 0.00 64 1011.0
20260509064026 45 194 2.0 3.0 0.00 0.00 0.00 62 1011.0
20260509063043 45 184 3.0 5.0 0.00 0.00 0.00 60 1010.9
20260509062026 45 187 3.0 5.0 0.00 0.00 0.00 61 1010.9
20260509061027 45 207 2.0 3.0 0.00 0.00 0.00 61 1011.0
20260509060027 45 196 3.0 4.0 0.00 0.00 0.00 61 1011.0
20260509055026 46 189 3.0 4.0 0.00 0.00 0.00 60 1011.0
20260509054027 46 194 2.0 5.0 0.00 0.00 0.00 60 1011.1
20260509053023 46 194 3.0 6.0 0.00 0.00 0.00 59 1011.0
20260509052040 46 192 3.0 6.0 0.00 0.00 0.00 60 1011.0
20260509051019 46 199 3.0 6.0 0.00 0.00 0.00 60 1011.0
20260509050018 46 186 3.0 6.0 0.00 0.00 0.00 62 1011.0
20260509045040 46 189 3.0 7.0 0.00 0.00 0.00 63 1011.0
20260509044039 46 185 3.0 6.0 0.00 0.00 0.00 64 1011.0
20260509043020 47 180 3.0 5.0 0.00 0.00 0.00 61 1011.0
20260509042019 47 193 3.0 5.0 0.00 0.00 0.00 60 1011.0
20260509041019 47 188 2.0 5.0 0.00 0.00 0.00 61 1010.9
20260509040020 48 200 2.0 5.0 0.00 0.00 0.00 61 1010.9
20260509035019 48 197 2.0 4.0 0.00 0.00 0.00 59 1011.0
20260509034037 49 206 2.0 5.0 0.00 0.00 0.00 57 1010.9
20260509033020 49 209 2.0 5.0 0.00 0.00 0.00 57 1010.9
20260509032017 49 216 1.0 3.0 0.00 0.00 0.00 56 1010.8
20260509031017 49 215 2.0 6.0 0.00 0.00 0.00 56 1010.8
20260509030042 50 214 2.0 5.0 0.00 0.00 0.00 56 1010.8
20260509025018 50 214 3.0 5.0 0.00 0.00 0.00 56 1010.8
20260509024018 50 212 3.0 6.0 0.00 0.00 0.00 56 1010.8
20260509023018 50 211 2.0 4.0 0.00 0.00 0.00 55 1010.7
20260509022018 51 204 2.0 6.0 0.00 0.00 0.00 54 1010.7
20260509021019 51 227 2.0 4.0 0.00 0.00 0.00 53 1010.6
20260509020020 51 230 2.0 5.0 0.00 0.00 0.00 54 1010.6
20260509015019 51 217 1.0 4.0 0.00 0.00 0.00 54 1010.6
20260509014020 51 208 3.0 6.0 0.00 0.00 0.00 52 1010.4
20260509013039 51 208 2.0 5.0 0.00 0.00 0.00 52 1010.3
20260509012019 51 217 2.0 5.0 0.00 0.00 0.00 52 1010.2
20260509011019 51 225 3.0 8.0 0.00 0.00 0.00 52 1010.1
20260509010020 51 249 3.0 10.0 0.00 0.00 0.00 51 1010.0
20260509005020 51 240 3.0 6.0 0.00 0.00 0.00 51 1009.9
20260509004037 51 225 3.0 7.0 0.00 0.00 0.00 51 1009.7
20260509003020 51 213 3.0 8.0 0.00 0.00 0.00 51 1009.7
20260509002038 52 221 3.0 9.0 0.00 0.00 0.00 51 1009.6
20260509001018 52 210 3.0 7.0 0.00 0.00 0.00 49 1009.5
20260509000020 52 208 4.0 9.0 0.00 0.00 0.00 48 1009.4
20260508235019 52 205 3.0 8.0 0.00 0.00 0.00 47 1009.3
20260508234018 52 199 3.0 7.0 0.00 0.00 0.00 46 1009.2
20260508233021 52 217 2.0 6.0 0.00 0.00 0.00 46 1009.2
20260508232019 53 202 3.0 5.0 0.00 0.00 0.00 46 1009.1
20260508231020 54 216 2.0 5.0 0.00 0.00 0.00 44 1009.1
20260508230018 54 196 3.0 8.0 0.00 0.00 0.00 44 1009.1
20260508225020 53 243 3.0 8.0 0.00 0.00 0.00 45 1009.2
20260508224019 52 201 3.0 5.0 0.00 0.00 0.00 47 1009.2
20260508223039 52 217 3.0 6.0 0.00 0.00 0.00 47 1009.2
20260508222019 53 210 4.0 8.0 0.00 0.00 0.00 47 1009.1
20260508221037 53 249 3.0 8.0 0.00 0.00 0.00 46 1009.1
20260508220020 53 284 2.0 5.0 0.00 0.00 0.00 44 1009.0
20260508215040 52 184 3.0 7.0 0.00 0.00 0.00 48 1009.1
20260508214019 52 275 3.0 7.0 0.00 0.00 0.00 50 1009.3
20260508213017 52 213 2.0 6.0 0.00 0.00 0.00 51 1009.2
20260508212100 52 199 3.0 7.0 0.00 0.00 0.00 50 1009.1
20260508211017 52 199 4.0 7.0 0.00 0.00 0.00 49 1008.9
20260508210019 52 204 4.0 9.0 0.00 0.00 0.00 48 1008.8
20260508205021 52 195 4.0 7.0 0.00 0.00 0.00 46 1008.7
20260508204019 52 192 3.0 7.0 0.00 0.00 0.00 49 1008.7
20260508203018 52 201 4.0 7.0 0.00 0.00 0.00 51 1008.8
20260508202018 53 201 4.0 9.0 0.00 0.00 0.00 51 1008.9
20260508201018 53 208 3.0 9.0 0.00 0.00 0.00 50 1008.9
20260508200018 52 315 3.0 7.0 0.00 0.00 0.00 48 1008.8
20260508195039 51 320 4.0 8.0 0.00 0.00 0.00 49 1008.9
20260508194019 51 321 5.0 12.0 0.00 0.00 0.00 49 1009.0
20260508193019 52 312 5.0 14.0 0.00 0.00 0.00 47 1008.9
20260508192019 52 248 3.0 9.0 0.00 0.00 0.00 48 1008.9
20260508191019 52 221 4.0 8.0 0.00 0.00 0.00 47 1008.9
20260508190016 53 205 5.0 10.0 0.00 0.00 0.00 46 1008.9
20260508185020 52 321 4.0 9.0 0.00 0.00 0.00 48 1009.0
20260508184042 52 267 4.0 8.0 0.00 0.00 0.00 48 1009.1
20260508183017 51 300 6.0 11.0 0.00 0.00 0.00 49 1009.1
20260508182021 51 246 4.0 10.0 0.00 0.00 0.00 48 1009.2
20260508181038 51 280 4.0 11.0 0.00 0.00 0.00 48 1009.2
20260508180017 51 253 3.0 10.0 0.00 0.00 0.00 48 1009.2
20260508175018 51 303 4.0 12.0 0.00 0.00 0.00 46 1009.2
20260508174018 52 285 4.0 10.0 0.00 0.00 0.00 46 1009.2
20260508173018 50 262 4.0 8.0 0.00 0.00 0.00 48 1009.2
20260508172021 50 292 4.0 10.0 0.00 0.00 0.00 49 1009.3
20260508171040 50 267 4.0 10.0 0.00 0.00 0.00 50 1009.3
20260508170019 49 218 4.0 8.0 0.00 0.00 0.00 51 1009.3
20260508165038 49 306 3.0 7.0 0.00 0.00 0.00 51 1009.3
20260508164020 49 265 3.0 7.0 0.00 0.00 0.00 50 1009.4
20260508162019 49 224 2.0 6.0 0.00 0.00 0.00 50 1009.4
20260508161020 49 298 4.0 7.0 0.00 0.00 0.00 49 1009.4
20260508160021 49 307 3.0 8.0 0.00 0.00 0.00 49 1009.4
20260508155017 49 327 4.0 8.0 0.00 0.00 0.00 49 1009.4
20260508154020 50 257 2.0 8.0 0.00 0.00 0.00 48 1009.4
20260508153040 50 273 3.0 8.0 0.00 0.00 0.00 47 1009.5
20260508152017 50 307 5.0 9.0 0.00 0.00 0.00 49 1009.6
20260508151021 49 299 3.0 8.0 0.00 0.00 0.00 51 1009.7
20260508150019 48 270 3.0 9.0 0.00 0.00 0.00 54 1009.6
20260508145019 47 322 4.0 9.0 0.00 0.00 0.00 56 1009.6
20260508144021 48 292 3.0 8.0 0.00 0.00 0.00 58 1009.7
20260508143018 48 301 3.0 6.0 0.00 0.00 0.00 59 1009.7
20260508142018 48 298 4.0 10.0 0.00 0.00 0.00 59 1009.7
20260508141018 47 319 3.0 7.0 0.00 0.00 0.00 60 1009.8
20260508140018 46 301 2.0 6.0 0.00 0.00 0.00 62 1009.8
20260508135039 46 314 3.0 6.0 0.00 0.00 0.00 63 1009.7
20260508134022 46 322 4.0 8.0 0.00 0.00 0.00 63 1009.7
20260508133022 47 321 4.0 7.0 0.00 0.00 0.00 63 1009.7
20260508132108 47 312 3.0 7.0 0.00 0.00 0.00 64 1009.7
20260508131029 46 318 3.0 4.0 0.00 0.00 0.00 65 1009.6
20260508130042 46 324 3.0 9.0 0.00 0.00 0.00 65 1009.6
20260508125023 46 308 3.0 6.0 0.00 0.00 0.00 66 1009.6
20260508124023 46 327 3.0 7.0 0.00 0.00 0.00 67 1009.5
20260508123017 46 327 3.0 6.0 0.00 0.00 0.00 69 1009.5
20260508122109 46 260 2.0 4.0 0.00 0.00 0.00 64 1009.4
20260508121029 45 284 2.0 4.0 0.00 0.00 0.00 71 1009.5
20260508120029 45 203 1.0 3.0 0.00 0.00 0.00 74 1009.5
20260508115029 45 203 2.0 3.0 0.00 0.00 0.00 74 1009.5
20260508114029 44 219 2.0 3.0 0.00 0.00 0.00 74 1009.4
20260508113050 44 221 1.0 3.0 0.00 0.00 0.00 75 1009.3
20260508112031 43 209 2.0 5.0 0.00 0.00 0.00 76 1009.2
20260508111030 43 209 2.0 2.0 0.00 0.00 0.00 78 1009.2
20260508110032 43 234 1.0 2.0 0.00 0.00 0.00 78 1009.1
20260508105030 42 221 1.0 2.0 0.00 0.00 0.00 79 1009.0
20260508104031 42 213 1.0 2.0 0.00 0.00 0.00 80 1008.9